Location: Hohenfelde
(53.8441°N, 9.6220°E)
Time: 12:16:24
(UTC+00:00)

Cosmos 1954 Rocket - Pass Details

Date: 14 July 2020
Orbit: 751 x 782 km, 74.0° (Epoch: 12 August)

Event Time Altitude Azimuth Distance (km) Brightness Sun altitude
Exits shadow 02:08:18 - 206° (SSW) 2,485 6.0 -7.0°
Reaches altitude 10° 02:08:45 10° 206° (SSW) 2,315 5.8 -6.9°
Maximum altitude 02:14:02 87° 297° (WNW) 786 4.1 -6.4°
Drops below altitude 10° 02:19:23 10° 26° (NNE) 2,346 8.1 -6.0°
Sets 02:21:47 0° 27° (NNE) 3,281 9.3 -5.7°
